Tracking 35275 objects as of 8-Sep-2026
HD Live streaming from Space Station
objects crossing your sky now

COSMOS 554 DEB


COSMOS 554 DEB is no longer on orbit


NORAD ID: 6486
Int'l Code: 1973-021AV
Launch date: April 19, 1973
Source: Commonwealth of Independent States (former USSR) (CIS)
Launch site: PLESETSK MISSILE AND SPACE COMPLEX (PKMTR)
Decay date: 1973-05-19

Note: This is SATELLITE DEBRIS
Your satellite tracking list
Your tracking list is empty




NASA's NSSDC Master Catalog

Two Line Element Set (TLE):
1 06486U 73021 AV 73129.91522678  .00723752 +35351-3 +00000-0 0  9995
2 06486 072.4475 293.9493 0178324 305.5117 052.9517 15.63560351003334
Source of the keplerian elements: AFSPC